Simultaneous Nadir Overpasses (SNOs) Predictions

Prediction of SNOs between GOES-15 and TERRA Satellite Orbit:

Table of predicted SNOs for the next 14.0 days since TLE Epoch: 11/11/2014
Index Date Time (GOES-15) GOES-15 Lat,Lon TERRA Lat,Lon Distance(km) Time Diff (sec)
1 11/12/2014 19:21:31 -0.23,-134.60 -0.63,-132.58 229.56 80
2 11/13/2014 07:42:54 0.21,-134.53 -0.48,-137.76 367.42 80
3 11/15/2014 07:30:38 0.21,-134.44 0.15,-134.78 39.05 80
4 11/17/2014 07:15:41 0.21,-134.34 0.74,-131.80 289.00 80
5 11/17/2014 19:36:55 -0.20,-134.36 0.37,-136.95 294.39 80
6 11/19/2014 19:27:18 -0.20,-134.26 -0.25,-133.96 33.26 80
7 11/21/2014 19:15:01 -0.20,-134.15 -0.90,-130.99 360.29 80
8 11/22/2014 07:36:22 0.18,-134.08 -0.24,-136.16 236.20 80
9 11/24/2014 07:21:24 0.18,-133.96 0.37,-133.18 89.84 80
10 11/24/2014 19:42:37 -0.16,-133.96 0.78,-138.32 495.26 80




NCC Satellite Simultaneous Nadir Overpasses (SNOs) Prediction Service
